, AK

(GMT )
Denali Park

Weather History for PAIN - August, 2019

Change the Weather History Date:

Sunday, August 25, 2019

  Actual Average Record
Temperature  
Mean Temperature 45 °F -  
Max Temperature 61 °F 59 °F 81 °F (1979)
Min Temperature 30 °F 36 °F 26 °F (2013)
Degree Days  
Heating Degree Days 20    
Moisture  
Dew Point 38 °F    
Average Humidity 72    
Maximum Humidity 96    
Minimum Humidity 44    
Precipitation  
Precipitation 0.00 in - - ()
Sea Level Pressure  
Sea Level Pressure 29.97 in    
Wind  
Wind Speed 1 mph (ENE)    
Max Wind Speed 9 mph    
Max Gust Speed -    
Visibility 10 miles    
Events      
Averages and records for this station are not official NWS values.
T = Trace of Precipitation, MM = Missing Value Source: NWS Daily Summary

Daily Weather History Graph

Daily Weather History Graph

Search for Another Location

Airport or City:

Astronomy

Aug. 25, 2019 Rise Set
Actual Time 6:19 AM AKDT 9:34 PM AKDT
Civil Twilight 5:23 AM AKDT 10:29 PM AKDT
Nautical Twilight 3:59 AM AKDT 11:51 PM AKDT
Astronomical Twilight 2:30 AM AKDT 1:25 AM AKDT
Moon No Moon Rise 7:38 PM AKDT (8/25)
Length of Visible Light 17h 06m
Length of Day
15h 15m
Waning Crescent, 27% of the Moon is Illuminated
Aug 25
Waning Crescent
Aug 30
New
Sep 5
First Quarter
Sep 13
Full
Sep 21
Last Quarter

Hourly Weather History & Observations

Time (AKDT) Temp. Dew Point Humidity Pressure Visibility Wind Dir Wind Speed Gust Speed Precip Events Conditions
12:56 AM 37.0 °F 34.0 °F 89% 29.93 in 10.0 mi Calm Calm - N/A   Clear
1:56 AM 37.0 °F 34.0 °F 89% 29.93 in 10.0 mi Calm Calm - N/A   Overcast
2:56 AM 37.0 °F 35.1 °F 93% 29.95 in 10.0 mi Calm Calm - N/A   Overcast
3:56 AM 37.0 °F 34.0 °F 89% 29.95 in 10.0 mi Calm Calm - N/A   Overcast
4:56 AM 35.1 °F 33.1 °F 92% 29.96 in 10.0 mi Calm Calm - N/A   Scattered Clouds
6:56 AM 30.9 °F 30.0 °F 96% 29.97 in 10.0 mi Calm Calm - N/A   Clear
7:56 AM 37.0 °F 36.0 °F 96% 29.98 in 10.0 mi Calm Calm - N/A   Clear
8:56 AM 39.9 °F 35.1 °F 83% 29.97 in 10.0 mi Calm Calm - N/A   Clear
9:56 AM 45.0 °F 37.0 °F 74% 29.98 in 10.0 mi Calm Calm - N/A   Clear
10:56 AM 46.0 °F 37.9 °F 73% 29.99 in 10.0 mi Calm Calm - N/A   Clear
12:56 PM 59.0 °F 39.0 °F 48% 29.96 in 10.0 mi ESE 9.2 mph - N/A   Mostly Cloudy
1:56 PM 60.1 °F 39.0 °F 46% 29.95 in 10.0 mi SE 8.1 mph - N/A   Overcast
2:56 PM 60.1 °F 37.9 °F 44% 29.94 in 10.0 mi SE 5.8 mph - N/A   Overcast
3:56 PM 57.0 °F 41.0 °F 55% 29.95 in 10.0 mi North 6.9 mph - N/A   Overcast
4:56 PM 57.0 °F 41.0 °F 55% 29.96 in 10.0 mi North 6.9 mph - N/A   Overcast
5:56 PM 57.0 °F 43.0 °F 59% 29.97 in 10.0 mi Calm Calm - N/A   Overcast
6:56 PM 57.0 °F 43.0 °F 59% 29.97 in 9.0 mi Calm Calm - N/A   Overcast
7:56 PM 54.0 °F 42.1 °F 64% 29.98 in 10.0 mi North 6.9 mph - N/A   Overcast
8:56 PM 53.1 °F 41.0 °F 64% 30.00 in 10.0 mi Calm Calm - N/A   Overcast
9:56 PM 52.0 °F 39.9 °F 63% 30.01 in 10.0 mi Variable 3.5 mph - 0.00 in   Overcast
10:56 PM 50.0 °F 41.0 °F 71% 30.02 in 10.0 mi Calm Calm - N/A   Overcast
11:56 PM 48.0 °F 42.1 °F 80% 30.04 in 10.0 mi Calm Calm - N/A   Overcast